Weather History for KDUC - February, 2013

Change the Weather History Date:

Monday, February 25, 2013

  Actual Average (KLAW) Record (KLAW)
Temperature  
Mean Temperature 42 °F -  
Max Temperature 51 °F 60 °F 80 °F (1950)
Min Temperature 33 °F 35 °F 10 °F (1960)
Degree Days  
Heating Degree Days 23    
Moisture  
Dew Point 38 °F    
Average Humidity 92    
Maximum Humidity 100    
Minimum Humidity 58    
Precipitation  
Precipitation 0.65 in - - ()
Sea Level Pressure  
Sea Level Pressure 29.57 in    
Wind  
Wind Speed 13 mph (NNE)    
Max Wind Speed 24 mph    
Max Gust Speed 34 mph    
Visibility 9 miles    
Events Rain , Snow    
Averages and records for this station are not official NWS values.
T = Trace of Precipitation, MM = Missing Value Source: NWS Daily Summary

Daily Weather History Graph

Daily Weather History Graph

Search for Another Location

Airport or City:

Trip Planner

Search our weather history database for the weather conditions in past years. The results will help you decide how hot, cold, wet, or windy it might be!

Date:

Astronomy

Feb. 25, 2013 Rise Set
Actual Time 7:05 AM CST 6:24 PM CST
Civil Twilight 6:40 AM CST 6:50 PM CST
Nautical Twilight 6:10 AM CST 7:19 PM CST
Astronomical Twilight 5:41 AM CST 7:48 PM CST
Moon 6:36 PM CST (2/25) 6:38 AM CST (2/25)
Length of Visible Light 12h 09m
Length of Day
11h 19m
Full, 100% of the Moon is Illuminated
Feb 25
Full
Feb 25
Full
Mar 4
Last Quarter
Mar 11
New
Mar 19
First Quarter

Hourly Weather History & Observations

Time (CST) Temp. Windchill Dew Point Humidity Pressure Visibility Wind Dir Wind Speed Gust Speed Precip Events Conditions
12:15 AM 51.8 °F - 39.2 °F 62% 29.67 in 10.0 mi East 10.4 mph 17.3 mph N/A   Scattered Clouds
12:35 AM 51.8 °F - 37.4 °F 58% 29.68 in 10.0 mi East 10.4 mph - N/A   Mostly Cloudy
12:55 AM 51.8 °F - 37.4 °F 58% 29.67 in 10.0 mi East 11.5 mph - N/A   Overcast
1:15 AM 51.8 °F - 39.2 °F 62% 29.67 in 10.0 mi East 12.7 mph - N/A   Mostly Cloudy
1:35 AM 51.8 °F - 39.2 °F 62% 29.69 in 10.0 mi NNE 6.9 mph - N/A   Overcast
1:55 AM 51.8 °F - 39.2 °F 62% 29.68 in 10.0 mi NNE 17.3 mph - N/A   Overcast
2:15 AM 50.0 °F - 39.2 °F 66% 29.68 in 10.0 mi ENE 11.5 mph - N/A   Overcast
2:35 AM 50.0 °F - 37.4 °F 62% 29.65 in 10.0 mi ENE 13.8 mph 20.7 mph N/A   Overcast
2:55 AM 50.0 °F - 37.4 °F 62% 29.63 in 10.0 mi East 17.3 mph - N/A   Mostly Cloudy
3:15 AM 48.2 °F - 41.0 °F 76% 29.62 in 10.0 mi East 18.4 mph 23.0 mph 0.01 in Rain Light Rain
3:35 AM 46.4 °F 40.1 °F 41.0 °F 81% 29.59 in 10.0 mi East 15.0 mph 20.7 mph 0.02 in   Mostly Cloudy
3:55 AM 46.4 °F 39.5 °F 41.0 °F 81% 29.56 in 10.0 mi East 17.3 mph 23.0 mph 0.02 in   Overcast
4:15 AM 46.4 °F 39.2 °F 41.0 °F 81% 29.55 in 10.0 mi East 18.4 mph - N/A   Overcast
4:35 AM 46.4 °F 40.7 °F 41.0 °F 81% 29.57 in 10.0 mi East 12.7 mph - 0.06 in Rain Light Rain
4:55 AM 44.6 °F 38.1 °F 42.8 °F 93% 29.57 in 10.0 mi East 13.8 mph - 0.13 in Rain Light Rain
5:15 AM 44.6 °F 38.1 °F 42.8 °F 93% 29.57 in 10.0 mi East 13.8 mph - N/A   Overcast
5:35 AM 44.6 °F 37.4 °F 42.8 °F 93% 29.56 in 10.0 mi East 16.1 mph - 0.02 in   Overcast
5:55 AM 44.6 °F 38.8 °F 44.6 °F 100% 29.55 in 10.0 mi East 11.5 mph - 0.02 in   Overcast
6:15 AM 44.6 °F 39.2 °F 44.6 °F 100% 29.56 in 10.0 mi East 10.4 mph - N/A   Overcast
6:35 AM 44.6 °F 39.2 °F 44.6 °F 100% 29.55 in 10.0 mi NE 10.4 mph - 0.01 in   Overcast
6:55 AM 44.6 °F 40.2 °F 42.8 °F 93% 29.58 in 10.0 mi North 8.1 mph - 0.01 in   Overcast
7:15 AM 42.8 °F 38.0 °F 42.8 °F 100% 29.58 in 10.0 mi NNE 8.1 mph - 0.07 in Rain Light Rain
7:35 AM 42.8 °F 38.0 °F 42.8 °F 100% 29.58 in 10.0 mi NNE 8.1 mph - 0.09 in Rain Light Rain
7:55 AM 42.8 °F 41.1 °F 42.8 °F 100% 29.61 in 10.0 mi NNW 3.5 mph - 0.12 in Rain Light Rain
8:15 AM 42.8 °F 37.5 °F 42.8 °F 100% 29.60 in 10.0 mi NE 9.2 mph - 0.01 in Rain Light Rain
8:35 AM 42.8 °F 36.2 °F 42.8 °F 100% 29.58 in 10.0 mi NE 12.7 mph - 0.02 in   Mostly Cloudy
8:55 AM 42.8 °F 36.6 °F 42.8 °F 100% 29.58 in 10.0 mi NE 11.5 mph - 0.02 in   Overcast
9:15 AM 42.8 °F 36.2 °F 42.8 °F 100% 29.55 in 10.0 mi NE 12.7 mph - N/A   Overcast
9:35 AM 42.8 °F 35.8 °F 42.8 °F 100% 29.54 in 10.0 mi NE 13.8 mph 19.6 mph N/A   Overcast
9:55 AM 42.8 °F 35.4 °F 42.8 °F 100% 29.51 in 10.0 mi NE 15.0 mph 23.0 mph N/A   Overcast
10:15 AM 42.8 °F 35.8 °F 42.8 °F 100% 29.52 in 10.0 mi NE 13.8 mph 23.0 mph N/A   Overcast
10:35 AM 42.8 °F 38.0 °F 42.8 °F 100% 29.55 in 10.0 mi NE 8.1 mph 17.3 mph N/A   Overcast
10:55 AM 42.8 °F 35.8 °F 42.8 °F 100% 29.55 in 10.0 mi NE 13.8 mph - N/A   Overcast
11:15 AM 42.8 °F 35.4 °F 42.8 °F 100% 29.55 in 10.0 mi NE 15.0 mph 21.9 mph N/A   Overcast
11:35 AM 42.8 °F 36.6 °F 41.0 °F 93% 29.54 in 10.0 mi NE 11.5 mph - N/A   Overcast
11:55 AM 42.8 °F 36.6 °F 42.8 °F 100% 29.52 in 10.0 mi NE 11.5 mph 18.4 mph N/A   Overcast
12:15 PM 42.8 °F 35.4 °F 41.0 °F 93% 29.51 in 10.0 mi NE 15.0 mph 19.6 mph N/A   Overcast
12:35 PM 41.0 °F 33.1 °F 41.0 °F 100% 29.50 in 10.0 mi NE 15.0 mph 19.6 mph N/A   Overcast
12:55 PM 41.0 °F 35.8 °F 41.0 °F 100% 29.51 in 10.0 mi ENE 8.1 mph - 0.01 in Rain Light Rain
1:15 PM 41.0 °F 36.4 °F 41.0 °F 100% 29.50 in 10.0 mi NNE 6.9 mph - 0.13 in Rain Light Rain
1:35 PM 41.0 °F 35.2 °F 41.0 °F 100% 29.48 in 10.0 mi North 9.2 mph - 0.22 in Rain Light Rain
1:55 PM 41.0 °F 34.7 °F 41.0 °F 100% 29.48 in 10.0 mi North 10.4 mph - 0.24 in Rain Light Rain
2:15 PM 39.2 °F 32.0 °F 39.2 °F 100% 29.48 in 10.0 mi North 11.5 mph 17.3 mph 0.01 in   Overcast
2:35 PM 37.4 °F 29.8 °F 37.4 °F 100% 29.48 in 10.0 mi North 11.5 mph - 0.01 in   Overcast
2:55 PM 35.6 °F 28.0 °F 35.6 °F 100% 29.49 in 10.0 mi NNW 10.4 mph 19.6 mph 0.04 in Rain Light Rain
3:15 PM 33.8 °F 25.3 °F 33.8 °F 100% 29.50 in 10.0 mi NNW 11.5 mph - 0.02 in Rain Light Rain
3:35 PM 33.8 °F 24.3 °F 33.8 °F 100% 29.50 in 7.0 mi North 13.8 mph - 0.03 in Rain Light Rain
3:55 PM 33.8 °F 23.9 °F 33.8 °F 100% 29.50 in 4.0 mi NNW 15.0 mph - 0.04 in Snow Light Snow
4:15 PM 33.8 °F 23.2 °F 33.8 °F 100% 29.50 in 4.0 mi North 17.3 mph 21.9 mph N/A Snow Light Snow
4:35 PM 33.8 °F 23.5 °F 33.8 °F 100% 29.50 in 4.0 mi NNW 16.1 mph 21.9 mph N/A Snow Light Snow
4:55 PM 33.8 °F 23.2 °F 33.8 °F 100% 29.50 in 4.0 mi NNW 17.3 mph - N/A Snow Light Snow
5:15 PM 33.8 °F 23.2 °F 33.8 °F 100% 29.50 in 10.0 mi North 17.3 mph 21.9 mph N/A   Overcast
5:35 PM 33.8 °F 23.2 °F 33.8 °F 100% 29.51 in 5.0 mi North 17.3 mph 23.0 mph N/A Snow Light Snow
5:55 PM 33.8 °F 23.9 °F 33.8 °F 100% 29.52 in 3.0 mi North 15.0 mph 24.2 mph N/A Snow Light Snow
6:15 PM 33.8 °F 24.3 °F 33.8 °F 100% 29.53 in 5.0 mi NNW 13.8 mph 21.9 mph N/A Snow Light Snow
6:35 PM 33.8 °F 22.8 °F 33.8 °F 100% 29.54 in 7.0 mi North 18.4 mph 26.5 mph N/A Snow Light Snow
6:55 PM 33.8 °F 23.5 °F 33.8 °F 100% 29.55 in 10.0 mi North 16.1 mph 25.3 mph N/A   Overcast
7:15 PM 33.8 °F 23.2 °F 33.8 °F 100% 29.56 in 10.0 mi North 17.3 mph 26.5 mph N/A Rain Light Rain
7:35 PM 33.8 °F 22.8 °F 33.8 °F 100% 29.57 in 10.0 mi North 18.4 mph 29.9 mph N/A   Overcast
7:55 PM 35.6 °F 24.2 °F 33.8 °F 93% 29.57 in 10.0 mi North 21.9 mph 29.9 mph N/A   Overcast
8:15 PM 35.6 °F 25.2 °F 33.8 °F 93% 29.59 in 10.0 mi North 18.4 mph 28.8 mph N/A   Overcast
8:35 PM 35.6 °F 24.5 °F 33.8 °F 93% 29.60 in 10.0 mi North 20.7 mph 27.6 mph N/A   Overcast
8:55 PM 35.6 °F 24.2 °F 33.8 °F 93% 29.61 in 10.0 mi North 21.9 mph 34.5 mph N/A   Overcast
9:15 PM 35.6 °F 23.7 °F 33.8 °F 93% 29.62 in 10.0 mi North 24.2 mph 31.1 mph N/A   Overcast
9:35 PM 35.6 °F 24.8 °F 33.8 °F 93% 29.63 in 10.0 mi NNW 19.6 mph 32.2 mph N/A   Overcast
9:55 PM 35.6 °F 24.2 °F 33.8 °F 93% 29.65 in 10.0 mi NNW 21.9 mph 27.6 mph N/A   Overcast
10:35 PM 35.6 °F 24.8 °F 33.8 °F 93% 29.67 in 10.0 mi NNW 19.6 mph - N/A   Overcast
10:55 PM 35.6 °F 25.5 °F 33.8 °F 93% 29.68 in 10.0 mi NNW 17.3 mph 24.2 mph N/A   Overcast
11:15 PM 35.6 °F 25.2 °F 33.8 °F 93% 29.68 in 10.0 mi NW 18.4 mph 24.2 mph N/A   Overcast
11:35 PM 35.6 °F 25.5 °F 33.8 °F 93% 29.69 in 10.0 mi NW 17.3 mph 27.6 mph N/A   Overcast
11:55 PM 35.6 °F 24.8 °F 33.8 °F 93% 29.69 in 10.0 mi NW 19.6 mph 24.2 mph N/A   Overcast